KNACKSAT-2

Last updated on Sat Sep 05 2026 00:03:18 GMT+0000 (Coordinated Universal Time)

1 67683U 98067XZ 26247.40908820 .00046186 00000+0 41796-3 0 9996 2 67683 51.6250 253.8035 0007502 118.8009 241.3742 15.67567444 32678
UTC large
Height (km)
Speed (km/s)
/
Latitude / Longitude
Inclination (degrees)
Orbital Period (minutes)
Azimuth
Elevation
Range (km)
Doppler Factor

Next 0 passes for location: London (51.5072 / 0.1276)

No passes found over London.
KNACKSAT-2